{"data":{"norad_id":56890,"epoch":"2026-09-20T03:58:12.592128Z","epoch_age_seconds":146479,"freshness":"FRESH","line1":"1 56890U 23083Q   26263.16542352 -.00000230  00000+0  11786-5 0  9994","line2":"2 56890  43.0029  70.2465 0001114 258.4585 101.6142 15.27575333181338","mean_motion":15.27575333,"eccentricity":0.0001114,"inclination_deg":43.0029,"raan_deg":70.2465,"arg_perigee_deg":258.4585,"mean_anomaly_deg":101.6142,"bstar":1.1786e-6,"rev_number":18133,"period_min":94.267036714451,"perigee_km":482.2987330643,"apogee_km":483.82740844006,"semimajor_km":6861.2000707522,"source":"CELESTRAK","updated_at":"2026-09-21T09:00:33.522196Z"}}